STARLINK-33843, 63507

Orbit data source: Space-Track

STARLINK-33843, 63507 is a payload satellite owned by SpaceX/Seattle (US) in LEO that was launched on Mon, 07 Apr 2025 UTC via an FALCON 9 launch vehicle from the Air Force Western Test Range (AFWTR). Payload-class satellites include a variety of spacecraft equipped with specific instruments for various scientific and technological missions. These include communications satellites like Starlink; space stations such as the ISS; scientific satellites like the Hubble; Earth observation satellites from companies like Planet Labs, Umbra, and HawkEye 360; GPS; miniature CubeSats for education and research; and military/defense satellites.

Loading next visibility...
Identifier
63507, 2025-071Q
Orbit
LEO
Country
Flag of USUS
Related business
Manufacturer
SpaceX/Seattle
Mission
Operational Commercial Communications
Bus & Motor
STARLINK V2MO, Unknown motor
Mass
575 kg wet, ~530 kg dry
Launch date (UTC)
2025-04-07 (1 year ago)
Launch vehicle
FALCON 9
Launch site
Air Force Western Test Range (AFWTR)
Object type
Payload
Rocket body
Debris
Shape & HBR
Box + 1 Pan, 17.7 m
Radar Cross Section
41.120 m², Large (>1 m²)

Expand to show TLE details & history
Last TLE update: 14 hours ago

TLE from 14 hours ago
0 STARLINK-33843
1 63507U 25071Q   26262.81065235  .00013239  00000-0  43765-3 0  9990
2 63507  53.1608 317.2973 0001569  71.2550 288.8622 15.31698693 82488
Epoch: 2026-09-19T19:27Z
TLE epoch observation values (Epoch: 2026-09-19T19:27:20.363Z)
Latitude
0.00003°
Longitude
26.74864°
Altitude
471.297 km
Speed
7.632 km/s
True Right ascension
21h 09m 11s
True Declination
0° 00' 00"
Sunlit
Object was in full shadow at epoch
Visualization orbit readout
Latitude
Unknown
Longitude
Unknown
Altitude
Unknown
Speed
Unknown
Apparent Right ascension
Unknown
Apparent Declination
Unknown
Sunlit
N/A
Visualization observer readout
Local Sidereal Time
02:39:22
Azimuth
Unknown
Elevation
Unknown
Doppler factor
Unknown
Orbital elements
Apogee altitude
472.075 km
Perigee altitude
469.926 km
Semi-major axis
6,849.137 km
Eccentricity
0.00016
Inclination
53.1608°
RAAN
317.2973°
Arg. of periapsis
71.255°
True anomaly
288.84519°
Mean anomaly
288.8622°
Eccentric anomaly
288.85369°
Mean motion
3.82904 °/min
Orbital period
94.02 mins
BSTAR
0.00043765
Loading maneuver chart data...
Computing Atmospheric mass density...
Loading historical data...
Loading historical data...
Loading historical data...
Loading historical data...
Loading historical data...
Loading historical data...
Loading historical data...

Documentation

Showing up to 5 results
|